Sault Ste Marie, MI

2:53 PM EST on February 24, 2017 (GMT -0500)
Sault Ste Marie Municipal / Sanderson Field

Weather History for KANJ - March, 2014

Change the Weather History Date:

Sunday, March 9, 2014

  Actual Average Record
Temperature  
Mean Temperature 15 °F 24 °F  
Max Temperature 31 °F 32 °F 55 °F (2010)
Min Temperature -1 °F 15 °F -16 °F (1916)
Degree Days  
Heating Degree Days 50 42  
Month to date heating degree days 514 386  
Since 1 July heating degree days 7294 6512  
Cooling Degree Days 0 0  
Month to date cooling degree days 0 0  
Year to date cooling degree days 0 0  
Moisture  
Dew Point 9 °F    
Average Humidity 70    
Maximum Humidity 87    
Minimum Humidity 53    
Precipitation  
Precipitation 0.04 in 0.06 in 1.16 in (1942)
Month to date precipitation 0.29 0.50  
Year to date precipitation 3.65 4.03  
Snow  
Snow 0.30 in 0.40 in 8.80 in (1942)
Month to date snowfall 3.0 4.7  
Since 1 July snowfall 109.1 104.9  
Snow Depth 27.00 in    
Sea Level Pressure  
Sea Level Pressure 29.90 in    
Wind  
Wind Speed 8 mph (South)    
Max Wind Speed 24 mph    
Max Gust Speed 35 mph    
Visibility 8 miles    
Events Snow    
T = Trace of Precipitation, MM = Missing Value Source: NWS Daily Summary

Daily Weather History Graph

Daily Weather History Graph

Search for Another Location

Airport or City:

Trip Planner

Search our weather history database for the weather conditions in past years. The results will help you decide how hot, cold, wet, or windy it might be!

Date:

Astronomy

Mar. 09, 2014 Rise Set
Actual Time 8:01 AM EDT 7:34 PM EDT
Civil Twilight 7:31 AM EDT 8:04 PM EDT
Nautical Twilight 6:56 AM EDT 8:39 PM EDT
Astronomical Twilight 6:21 AM EDT 9:15 PM EDT
Moon 1:11 PM EDT (3/9) 3:41 AM EDT (3/9)
Length of Visible Light 12h 33m
Length of Day
11h 33m
First Quarter, 61% of the Moon is Illuminated
Mar 9
First Quarter
Mar 16
Full
Mar 23
Last Quarter
Mar 30
New
Apr 7
First Quarter

Hourly Weather History & Observations

Time (EDT) Temp. Windchill Dew Point Humidity Pressure Visibility Wind Dir Wind Speed Gust Speed Precip Events Conditions
12:55 AM 1.0 °F -10.3 °F -2.9 °F 83% 30.15 in 10.0 mi SW 5.8 mph - N/A   Clear
1:55 AM 3.0 °F -8.0 °F -2.0 °F 80% 30.15 in 10.0 mi WSW 5.8 mph - N/A   Partly Cloudy
3:53 AM 3.2 °F - -0.4 °F 85% 30.10 in 10.0 mi Calm Calm - N/A   Mostly Cloudy
3:55 AM 3.9 °F - -0.9 °F 80% 30.14 in 10.0 mi Calm Calm - N/A   Mostly Cloudy
4:09 AM 1.9 °F - -2.9 °F 80% 30.08 in 10.0 mi Calm Calm - N/A   Scattered Clouds
4:55 AM -0.0 °F -7.9 °F -4.0 °F 83% 30.13 in 10.0 mi SSW 3.5 mph - N/A   Clear
5:55 AM 1.0 °F - -4.0 °F 79% 30.12 in 10.0 mi Calm Calm - N/A   Clear
6:55 AM 1.0 °F - -5.1 °F 75% 30.10 in 10.0 mi Calm Calm - N/A   Clear
7:55 AM -0.0 °F -7.9 °F -5.1 °F 79% 30.11 in 10.0 mi East 3.5 mph - N/A   Clear
8:55 AM 1.9 °F -7.6 °F -2.0 °F 83% 30.09 in 10.0 mi ENE 4.6 mph - N/A   Overcast
9:20 AM 3.0 °F -4.4 °F -0.0 °F 87% 30.04 in 10.0 mi East 3.5 mph - N/A   Overcast
9:55 AM 5.0 °F -2.1 °F 1.9 °F 87% 30.07 in 10.0 mi East 3.5 mph - N/A   Overcast
10:40 AM 8.1 °F 1.4 °F 3.9 °F 83% 30.01 in 10.0 mi East 3.5 mph - N/A   Overcast
10:55 AM 9.0 °F 2.4 °F 5.0 °F 84% 30.04 in 8.0 mi East 3.5 mph - 0.00 in Snow Light Snow
11:21 AM 10.0 °F 3.6 °F 7.0 °F 87% 29.97 in 2.5 mi ESE 3.5 mph - 0.00 in Snow Light Snow
11:38 AM 12.0 °F 1.5 °F 7.0 °F 80% 29.96 in 3.0 mi SE 6.9 mph - 0.00 in Snow Light Snow
11:47 AM 12.0 °F 0.5 °F 7.0 °F 80% 29.95 in 4.0 mi SE 8.1 mph - 0.00 in Snow Light Snow
11:55 AM 12.9 °F 2.6 °F 8.1 °F 81% 29.99 in 4.0 mi SE 6.9 mph - 0.00 in Snow Light Snow
12:55 PM 17.1 °F 6.6 °F 10.9 °F 77% 29.94 in 2.5 mi SE 8.1 mph - 0.01 in Snow Light Snow
1:05 PM 17.1 °F 7.6 °F 12.0 °F 81% 29.89 in 1.2 mi ESE 6.9 mph - 0.00 in Snow Light Snow
1:15 PM 18.0 °F 6.9 °F 12.9 °F 81% 29.88 in 0.8 mi SE 9.2 mph - 0.01 in Snow Light Snow
1:34 PM 19.9 °F 9.3 °F 16.0 °F 85% 29.85 in 1.0 mi SSE 9.2 mph - 0.02 in Snow Light Snow
1:41 PM 21.0 °F 10.6 °F 15.1 °F 78% 29.84 in 3.0 mi SSE 9.2 mph - 0.02 in Snow Light Snow
1:55 PM 21.9 °F 11.7 °F 15.1 °F 75% 29.87 in 10.0 mi South 9.2 mph - 0.03 in   Overcast
2:45 PM 25.0 °F 13.1 °F 12.9 °F 60% 29.79 in 2.5 mi South 13.8 mph 23.0 mph 0.00 in Snow Light Snow
2:53 PM 24.8 °F 12.4 °F 14.0 °F 64% 29.78 in 1.0 mi SSW 15.0 mph 26.5 mph 0.00 in Snow Light Snow
2:55 PM 24.1 °F 10.6 °F 14.0 °F 65% 29.82 in 1.2 mi SSW 17.3 mph 26.5 mph 0.00 in Snow Light Snow
3:16 PM 25.0 °F 13.6 °F 14.0 °F 63% 29.75 in 3.0 mi SSW 12.7 mph 24.2 mph 0.00 in Snow Light Snow
3:34 PM 26.1 °F 14.5 °F 14.0 °F 60% 29.75 in 10.0 mi SW 13.8 mph 21.9 mph 0.00 in   Overcast
3:55 PM 26.1 °F 13.6 °F 15.1 °F 63% 29.75 in 10.0 mi SSW 16.1 mph 23.0 mph 0.00 in   Overcast
4:55 PM 28.0 °F 20.8 °F 16.0 °F 61% 29.71 in 10.0 mi WSW 6.9 mph - 0.00 in   Overcast
5:55 PM 30.9 °F 19.4 °F 16.0 °F 54% 29.68 in 10.0 mi WSW 17.3 mph 24.2 mph 0.00 in   Overcast
6:55 PM 30.9 °F 19.8 °F 18.0 °F 59% 29.67 in 10.0 mi WSW 16.1 mph 25.3 mph N/A   Overcast
7:55 PM 30.0 °F 18.7 °F 19.9 °F 66% 29.68 in 10.0 mi WSW 16.1 mph 26.5 mph 0.00 in   Mostly Cloudy
8:55 PM 28.9 °F 18.6 °F 21.0 °F 72% 29.67 in 10.0 mi WSW 12.7 mph 19.6 mph N/A   Overcast
9:55 PM 28.9 °F 18.2 °F 21.9 °F 75% 29.66 in 10.0 mi WSW 13.8 mph - N/A   Clear
10:55 PM 28.9 °F 19.8 °F 23.0 °F 78% 29.65 in 10.0 mi WSW 10.4 mph - N/A   Partly Cloudy
11:55 PM 30.0 °F 22.4 °F 25.0 °F 82% 29.65 in 9.0 mi West 8.1 mph - N/A   Overcast
12:55 AM 30.9 °F 23.5 °F 25.0 °F 79% 29.64 in 9.0 mi WSW 8.1 mph - N/A   Overcast